FW5161 Weather Reports


Display with metric or nautical units.
time (UTC)temp
F
wind
direction
speed
MPH
gust
MPH
rain 1hr
in
rain 24hr
in
rain mn
in
humidity
%
barometer
mb
20260502224406 69 357 2.0 5.0 0.00 0.00 0.00 54 1015.1
20260502223906 69 307 2.0 5.0 0.00 0.00 0.00 54 1015.1
20260502223632 68 134 3.0 8.0 0.00 0.00 0.00 55 1015.2
20260502222904 67 64 3.0 8.0 0.00 0.00 0.00 58 1015.3
20260502222628 68 320 3.0 11.0 0.00 0.00 0.00 57 1015.3
20260502221901 67 57 3.0 11.0 0.00 0.00 0.00 54 1015.4
20260502221401 68 304 3.0 8.0 0.00 0.00 0.00 58 1015.5
20260502220901 67 308 3.0 8.0 0.00 0.00 0.00 57 1015.5
20260502220404 67 134 3.0 8.0 0.00 0.00 0.00 56 1015.4
20260502215906 66 25 3.0 8.0 0.00 0.00 0.00 59 1015.5
20260502215622 67 272 3.0 8.0 0.00 0.00 0.00 59 1015.7
20260502214901 65 58 3.0 9.0 0.00 0.00 0.00 60 1015.7
20260502214401 67 318 3.0 9.0 0.00 0.00 0.00 58 1015.7
20260502213857 66 16 3.0 8.0 0.00 0.00 0.00 58 1015.8
20260502213351 66 188 3.0 9.0 0.00 0.00 0.00 59 1015.9
20260502212845 65 44 3.0 9.0 0.00 0.00 0.00 61 1015.9
20260502211836 65 58 3.0 8.0 0.00 0.00 0.00 62 1016.0
20260502211335 65 124 3.0 8.0 0.00 0.00 0.00 63 1016.0
20260502210836 64 305 3.0 8.0 0.00 0.00 0.00 65 1016.1
20260502210559 64 62 2.0 8.0 0.00 0.00 0.00 66 1016.1
20260502210051 64 321 3.0 11.0 0.00 0.00 0.00 65 1016.1
20260502205328 64 290 3.0 11.0 0.00 0.00 0.00 65 1016.1
20260502204829 64 133 3.0 9.0 0.00 0.00 0.00 65 1016.2
20260502204329 65 323 3.0 9.0 0.00 0.00 0.00 65 1016.2
20260502203829 64 138 2.0 6.0 0.00 0.00 0.00 68 1016.2
20260502203329 65 290 2.0 6.0 0.00 0.00 0.00 68 1016.2
20260502202829 64 261 2.0 6.0 0.00 0.00 0.00 68 1016.2
20260502202329 66 69 2.0 5.0 0.00 0.00 0.00 67 1016.3
20260502201829 65 64 2.0 5.0 0.00 0.00 0.00 68 1016.5
20260502201555 64 285 2.0 8.0 0.00 0.00 0.00 69 1016.5
20260502200829 64 43 2.0 8.0 0.00 0.00 0.00 68 1016.5
20260502200329 63 29 2.0 7.0 0.00 0.00 0.00 70 1016.5
20260502195829 64 28 3.0 9.0 0.00 0.00 0.00 69 1016.4
20260502195329 62 86 3.0 9.0 0.00 0.00 0.00 68 1016.5
20260502194829 63 37 2.0 7.0 0.00 0.00 0.00 69 1016.6
20260502194329 64 323 3.0 8.0 0.00 0.00 0.00 70 1016.6
20260502193833 62 74 3.0 8.0 0.00 0.00 0.00 71 1016.6
20260502193333 64 95 3.0 8.0 0.00 0.00 0.00 71 1016.7
20260502192837 63 103 3.0 8.0 0.00 0.00 0.00 72 1016.7
20260502192333 62 67 3.0 8.0 0.00 0.00 0.00 72 1016.8
20260502191833 62 41 2.0 8.0 0.00 0.00 0.00 74 1016.8
20260502191555 63 28 2.0 7.0 0.00 0.00 0.00 73 1016.7
20260502190829 61 102 2.0 9.0 0.00 0.00 0.00 75 1016.9
20260502190326 61 99 3.0 9.0 0.00 0.00 0.00 73 1016.9
20260502185827 60 250 3.0 8.0 0.00 0.00 0.00 76 1016.9
20260502184827 60 116 3.0 7.0 0.00 0.00 0.00 77 1016.9
20260502184603 59 85 3.0 7.0 0.00 0.00 0.00 77 1017.0
20260502183827 59 7 2.0 6.0 0.00 0.00 0.00 77 1016.9
20260502183327 59 345 2.0 6.0 0.00 0.00 0.00 79 1017.0
20260502182827 59 96 2.0 6.0 0.00 0.00 0.00 80 1017.0
20260502182327 59 99 1.0 6.0 0.00 0.00 0.00 77 1017.1
20260502181827 59 133 1.0 6.0 0.00 0.00 0.00 78 1016.9
20260502181326 59 27 1.0 6.0 0.00 0.00 0.00 79 1017.0
20260502180827 59 55 2.0 6.0 0.00 0.00 0.00 78 1016.9
20260502180328 60 301 2.0 4.0 0.00 0.00 0.00 79 1017.0
20260502170324 57 299 1.0 5.0 0.00 0.00 0.00 84 1017.5
20260502164324 56 339 2.0 7.0 0.00 0.00 0.00 86 1017.3
20260502163824 56 276 2.0 7.0 0.00 0.00 0.00 86 1017.3
20260502163323 55 238 2.0 7.0 0.00 0.00 0.00 87 1017.3
20260502163057 55 132 2.0 7.0 0.00 0.00 0.00 87 1017.2
20260502162326 55 49 2.0 7.0 0.00 0.00 0.00 86 1017.1
20260502161823 55 23 2.0 7.0 0.00 0.00 0.00 86 1017.2
20260502161322 56 97 2.0 7.0 0.00 0.00 0.00 86 1017.2
20260502161053 55 345 2.0 11.0 0.00 0.00 0.00 86 1017.1
20260502160320 55 258 3.0 11.0 0.00 0.00 0.00 87 1017.1
20260502152318 56 124 3.0 9.0 0.00 0.00 0.00 85 1017.1
20260502151817 55 128 4.0 9.0 0.00 0.00 0.00 85 1017.2
20260502151555 55 94 4.0 8.0 0.00 0.00 0.00 86 1017.1
20260502150816 55 72 3.0 8.0 0.00 0.00 0.00 86 1017.1
20260502150310 55 99 3.0 10.0 0.00 0.00 0.00 86 1017.1
20260502130739 55 239 2.0 8.0 0.00 0.00 0.00 83 1016.4
20260502130237 55 267 2.0 8.0 0.00 0.00 0.00 83 1016.2
20260502123231 55 332 2.0 7.0 0.00 0.00 0.00 83 1016.2
20260502122729 55 246 2.0 6.0 0.00 0.00 0.00 83 1016.2
20260502122502 55 307 3.0 7.0 0.00 0.00 0.00 83 1016.2
20260502121729 55 214 2.0 7.0 0.00 0.00 0.00 83 1016.2
20260502121230 55 290 2.0 6.0 0.00 0.00 0.00 82 1016.1
20260502120729 55 302 2.0 7.0 0.00 0.00 0.00 82 1016.1
20260502120232 55 117 2.0 7.0 0.00 0.00 0.00 81 1016.1
20260502115731 55 218 2.0 8.0 0.00 0.00 0.00 81 1016.1
20260502115230 56 274 2.0 8.0 0.00 0.00 0.00 80 1016.2
20260502114729 56 259 2.0 6.0 0.00 0.00 0.00 80 1016.2
20260502114230 56 118 2.0 6.0 0.00 0.00 0.00 80 1016.2
20260502113729 56 285 2.0 8.0 0.00 0.00 0.00 80 1016.2
20260502113230 56 285 2.0 8.0 0.00 0.00 0.00 79 1016.1
20260502112951 56 189 2.0 6.0 0.00 0.00 0.00 78 1016.2
20260502112229 56 274 2.0 8.0 0.00 0.00 0.00 78 1016.1
20260502111729 56 132 2.0 8.0 0.00 0.00 0.00 78 1016.0
20260502111228 56 209 2.0 11.0 0.00 0.00 0.00 78 1016.0
20260502110729 56 269 2.0 11.0 0.00 0.00 0.00 78 1015.9
20260502110228 56 121 2.0 6.0 0.00 0.00 0.00 78 1015.9
20260502105728 57 290 2.0 8.0 0.00 0.00 0.00 78 1015.9
20260502105227 57 255 2.0 8.0 0.00 0.00 0.00 78 1015.8
20260502104727 57 241 2.0 6.0 0.00 0.00 0.00 78 1015.8
20260502104226 57 75 2.0 6.0 0.00 0.00 0.00 78 1015.7
20260502103726 57 143 2.0 5.0 0.00 0.00 0.00 79 1015.8
20260502103459 57 323 2.0 5.0 0.00 0.00 0.00 79 1015.8
20260502102951 57 236 2.0 5.0 0.00 0.00 0.00 79 1015.7
20260502102225 57 184 2.0 7.0 0.00 0.00 0.00 79 1015.7
20260502101726 57 103 2.0 7.0 0.00 0.00 0.00 79 1015.6
20260502101226 58 68 3.0 6.0 0.00 0.00 0.00 77 1015.5
20260502100721 58 113 3.0 5.0 0.00 0.00 0.00 76 1015.5
20260502100223 59 106 2.0 5.0 0.00 0.00 0.00 74 1015.6
20260502091216 60 83 1.0 5.0 0.00 0.00 0.00 66 1015.4
20260502090714 60 80 1.0 4.0 0.00 0.00 0.00 66 1015.4
20260502090436 60 142 2.0 5.0 0.00 0.00 0.00 66 1015.5
20260502071357 63 281 3.0 10.0 0.00 0.00 0.00 58 1015.1
20260502070629 62 152 2.0 6.0 0.00 0.00 0.00 58 1015.2
20260502070129 62 155 2.0 6.0 0.00 0.00 0.00 58 1015.2
20260502065631 62 149 1.0 4.0 0.00 0.00 0.00 57 1015.1
20260502065358 63 105 1.0 4.0 0.00 0.00 0.00 57 1015.2
20260502064629 63 107 1.0 4.0 0.00 0.00 0.00 57 1015.2
20260502064129 63 170 1.0 4.0 0.00 0.00 0.00 56 1015.1
20260502063629 63 166 2.0 4.0 0.00 0.00 0.00 56 1015.1
20260502063128 63 193 2.0 6.0 0.00 0.00 0.00 56 1015.1
20260502062629 63 172 2.0 6.0 0.00 0.00 0.00 56 1015.1
20260502062131 63 99 2.0 6.0 0.00 0.00 0.00 56 1015.0
20260502061631 63 75 2.0 6.0 0.00 0.00 0.00 58 1014.9
20260502061129 63 159 2.0 4.0 0.00 0.00 0.00 58 1014.9
20260502060632 62 198 2.0 4.0 0.00 0.00 0.00 59 1014.9
20260502060129 62 172 2.0 5.0 0.00 0.00 0.00 59 1014.8
20260502055859 63 109 2.0 5.0 0.00 0.00 0.00 58 1014.8
20260502055129 62 125 2.0 7.0 0.00 0.00 0.00 60 1014.7
20260502054634 63 311 2.0 7.0 0.00 0.00 0.00 60 1014.8
20260502054130 61 99 2.0 5.0 0.00 0.00 0.00 63 1014.7
20260502053629 62 134 2.0 5.0 0.00 0.00 0.00 63 1014.7
20260502053129 61 103 2.0 5.0 0.00 0.00 0.00 63 1014.8
20260502052900 62 104 2.0 5.0 0.00 0.00 0.00 63 1014.7
20260502052130 61 105 3.0 5.0 0.00 0.00 0.00 63 1014.8
20260502051630 61 105 3.0 5.0 0.00 0.00 0.00 64 1014.8
20260502051131 61 104 2.0 3.0 0.00 0.00 0.00 63 1014.9
20260502050630 61 104 2.0 3.0 0.00 0.00 0.00 63 1014.8
20260502050129 62 104 3.0 5.0 0.00 0.00 0.00 63 1014.8
20260502045630 62 105 3.0 5.0 0.00 0.00 0.00 62 1014.8
20260502045129 61 91 3.0 5.0 0.00 0.00 0.00 63 1014.7
20260502044629 61 84 3.0 6.0 0.00 0.00 0.00 63 1014.7
20260502044128 61 80 3.0 6.0 0.00 0.00 0.00 62 1014.7
20260502043904 62 116 4.0 6.0 0.00 0.00 0.00 61 1014.6
20260502043126 61 99 4.0 5.0 0.00 0.00 0.00 60 1014.5
20260502042619 62 97 3.0 5.0 0.00 0.00 0.00 60 1014.5
20260502042347 62 97 3.0 5.0 0.00 0.00 0.00 60 1014.6
20260502041608 62 194 2.0 4.0 0.00 0.00 0.00 58 1014.5
20260502041105 62 115 2.0 4.0 0.00 0.00 0.00 60 1014.5
20260502040835 63 116 2.0 6.0 0.00 0.00 0.00 58 1014.5
20260502040333 62 116 2.0 6.0 0.00 0.00 0.00 61 1014.4
20260502035607 62 65 2.0 5.0 0.00 0.00 0.00 62 1014.4
20260502035104 61 114 3.0 5.0 0.00 0.00 0.00 63 1014.3
20260502034101 62 93 3.0 5.0 0.00 0.00 0.00 62 1014.3
20260502033601 62 140 3.0 6.0 0.00 0.00 0.00 62 1014.2
20260502033102 62 120 2.0 6.0 0.00 0.00 0.00 61 1014.2
20260502032602 63 115 2.0 4.0 0.00 0.00 0.00 61 1014.2
20260502032100 63 115 2.0 5.0 0.00 0.00 0.00 60 1014.2
20260502031602 63 145 2.0 5.0 0.00 0.00 0.00 58 1014.2
20260502031102 63 173 2.0 4.0 0.00 0.00 0.00 59 1014.1
20260502030601 63 93 3.0 5.0 0.00 0.00 0.00 60 1014.1
20260502025836 64 161 2.0 7.0 0.00 0.00 0.00 59 1014.0
20260502025100 64 164 1.0 7.0 0.00 0.00 0.00 57 1014.0
20260502024836 63 14 0.0 2.0 0.00 0.00 0.00 61 1014.0
20260502024053 63 285 0.0 2.0 0.00 0.00 0.00 63 1014.1
20260502023548 64 306 0.0 3.0 0.00 0.00 0.00 60 1014.0
20260502023042 65 310 1.0 3.0 0.00 0.00 0.00 61 1014.0
20260502022542 64 147 2.0 6.0 0.00 0.00 0.00 63 1014.0
20260502022040 63 150 1.0 6.0 0.00 0.00 0.00 64 1014.0
20260502021545 64 102 0.0 2.0 0.00 0.00 0.00 63 1014.1
20260502021040 65 102 0.0 3.0 0.00 0.00 0.00 62 1014.1
20260502020540 64 103 0.0 3.0 0.00 0.00 0.00 62 1014.1
20260502020040 64 101 0.0 2.0 0.00 0.00 0.00 60 1014.2
20260502015539 64 101 1.0 5.0 0.00 0.00 0.00 61 1014.1
20260502015039 65 103 2.0 5.0 0.00 0.00 0.00 60 1014.2
20260502014540 66 40 1.0 4.0 0.00 0.00 0.00 57 1014.2
20260502014038 66 31 2.0 4.0 0.00 0.00 0.00 58 1014.2
20260502013537 67 127 1.0 4.0 0.00 0.00 0.00 57 1014.0
20260502013039 66 48 1.0 4.0 0.00 0.00 0.00 57 1014.1
20260502012806 65 81 2.0 4.0 0.00 0.00 0.00 60 1014.2
20260502012033 65 101 2.0 5.0 0.00 0.00 0.00 60 1014.3
20260502011534 66 66 2.0 5.0 0.00 0.00 0.00 60 1014.4
20260502011034 65 75 2.0 6.0 0.00 0.00 0.00 58 1014.4
20260502010534 65 55 2.0 6.0 0.00 0.00 0.00 58 1014.5
20260502010035 65 35 1.0 6.0 0.00 0.00 0.00 62 1014.4
20260502005534 65 70 2.0 6.0 0.00 0.00 0.00 61 1014.4
20260502005035 65 86 2.0 7.0 0.00 0.00 0.00 65 1014.4
20260502004535 64 108 3.0 7.0 0.00 0.00 0.00 65 1014.3
20260502004030 63 108 3.0 7.0 0.00 0.00 0.00 63 1014.4
20260502003031 65 98 3.0 6.0 0.00 0.00 0.00 59 1014.5
20260502002801 66 95 2.0 6.0 0.00 0.00 0.00 59 1014.6
20260502002030 67 92 1.0 5.0 0.00 0.00 0.00 58 1014.6
20260502001528 68 90 1.0 5.0 0.00 0.00 0.00 59 1014.6
20260502001029 69 13 2.0 6.0 0.00 0.00 0.00 59 1014.6
20260502000529 67 56 2.0 6.0 0.00 0.00 0.00 59 1014.7
20260502000030 67 23 2.0 4.0 0.00 0.00 0.00 62 1014.7
20260501235529 66 350 3.0 4.0 0.00 0.00 0.00 61 1014.7
20260501235028 67 359 3.0 4.0 0.00 0.00 0.00 62 1014.7
20260501234526 67 359 3.0 4.0 0.00 0.00 0.00 62 1014.7
20260501234019 67 352 3.0 4.0 0.00 0.00 0.00 61 1014.7
20260501233516 68 354 3.0 4.0 0.00 0.00 0.00 60 1014.6
20260501233015 69 343 3.0 5.0 0.00 0.00 0.00 59 1014.6
20260501232742 68 353 3.0 5.0 0.00 0.00 0.00 60 1014.7
20260501232245 69 346 2.0 5.0 0.00 0.00 0.00 58 1014.7
20260501231516 71 10 2.0 5.0 0.00 0.00 0.00 56 1014.8
20260501231012 70 10 3.0 4.0 0.00 0.00 0.00 60 1014.8
20260501230510 68 24 3.0 4.0 0.00 0.00 0.00 62 1014.9
20260501230010 68 348 3.0 5.0 0.00 0.00 0.00 59 1014.9
20260501225748 68 336 3.0 5.0 0.00 0.00 0.00 61 1014.9
20260501225009 68 357 3.0 4.0 0.00 0.00 0.00 61 1014.9
20260501224508 67 351 3.0 4.0 0.00 0.00 0.00 62 1015.0